Home   Weather   Corvallis   Past weeks

Flag for USA Past Weather in Corvallis, Oregon, USA — Yesterday and Last 2 Weeks

Now
72 °F

Mild.


Feels Like: 76 °F
Forecast: 55 / 76 °F
Wind: 17 mph from Northwest

Location: Corvallis Municipal

Current Time: Sep 26, 2016 at 8:39:32 PM

Latest Report: Sep 26, 2016 at 7:55 PM


Visibility: 10 mi

Pressure: 30.02 "Hg

Humidity: 57%

Dew Point: 55 °F

Location of CorvallisLocation

Past Weather in Corvallis — Graph

°F

Corvallis Temperature Yesterday

Maximum temperature yesterday: 84 °F (at 3:35 PM)
Minimum temperature yesterday: 45 °F (at 5:15 AM)
Average temperature yesterday: 63 °F

High & Low Weather Summary for the Past Weeks

 TemperatureHumidityPressure
High93 °F (Sep 26, 3:55 PM)94% (Sep 15, 8:15 AM)30.41 "Hg (Sep 15, 8:15 AM)
Low39 °F (Sep 14, 6:55 AM)15% (Sep 13, 4:15 PM)29.89 "Hg (Sep 13, 4:15 PM)
Average60 °F66%30.11 "Hg
* Reported Sep 11 7:15 PM — Sep 26 7:15 PM, Corvallis, Weather by CustomWeather, © 2016

Note: Actual official high and low records may vary slightly from our data, if they occured in-between our weather recording intervals... More about our weather records

Advertising

Corvallis Weather History for the Previous 24 Hours

Scroll right to see more
 ConditionsComfort  
Time TempWeatherWind HumidityBarometerVisibility
7:15 PM
Mon, Sep 26
73 °FMild.15 mph50%30.01 "Hg10 mi
6:55 PM75 °FMild.16 mph47%30.01 "Hg10 mi
6:35 PM79 °FWarm.17 mph42%30.01 "Hg10 mi
6:15 PM81 °FPleasantly warm.14 mph39%30.01 "Hg10 mi
5:55 PM82 °FPleasantly warm.12 mph40%30.00 "Hg10 mi
5:35 PM82 °FPleasantly warm.13 mph40%30.01 "Hg10 mi
5:15 PM84 °FPleasantly warm.15 mph37%30.00 "Hg10 mi
4:55 PM88 °FPleasantly warm.18 mph35%30.00 "Hg10 mi
4:35 PM91 °FHot.16 mph32%30.00 "Hg10 mi
4:15 PM91 °FHot.5 mph30%30.00 "Hg7 mi
3:55 PM93 °FExtremely hot.3 mph30%30.00 "Hg10 mi
3:35 PM91 °FHot.5 mph30%30.01 "Hg10 mi
3:15 PM91 °FHot.No wind32%30.01 "Hg10 mi
2:55 PM90 °FHot.5 mph33%30.02 "Hg9 mi
2:35 PM90 °FHot.3 mph33%30.02 "Hg8 mi
2:15 PM88 °FPleasantly warm.3 mph35%30.03 "Hg9 mi
1:55 PM88 °FPleasantly warm.6 mph38%30.03 "Hg10 mi
1:35 PM84 °FPleasantly warm.No wind40%30.04 "Hg10 mi
1:15 PM82 °FWarm.3 mph42%30.05 "Hg10 mi
12:55 PM81 °FWarm.5 mph45%30.05 "Hg10 mi
12:35 PM79 °FWarm.7 mph45%30.06 "Hg9 mi
12:15 PM77 °FWarm.No wind47%30.06 "Hg10 mi
11:55 AM77 °FWarm.3 mph47%30.06 "Hg10 mi
11:35 AM75 °FMild.5 mph50%30.07 "Hg10 mi
11:15 AM75 °FMild.No wind50%30.07 "Hg10 mi
10:55 AM72 °FMild.No wind57%30.08 "Hg10 mi
10:35 AM72 °FMild.No wind57%30.08 "Hg9 mi
10:15 AM70 °FMild.No wind60%30.08 "Hg10 mi
9:55 AM66 °FMild.No wind68%30.09 "Hg10 mi
9:35 AM64 °FMild.No wind73%30.09 "Hg10 mi
9:15 AM61 °FCool.No wind83%30.09 "Hg10 mi
8:55 AM57 °FCool.No wind88%30.09 "Hg10 mi
8:35 AM55 °FCool.No wind88%30.08 "Hg10 mi
7:55 AM52 °FCool.No wind88%30.08 "Hg10 mi
7:35 AM50 °FCool.No wind88%30.08 "Hg5 mi
7:15 AM48 °FCool.No wind94%30.08 "Hg10 mi
6:55 AM48 °FCool.No wind94%30.08 "Hg10 mi
6:35 AM50 °FCool.No wind88%30.08 "Hg10 mi
6:15 AM52 °FCool.No wind88%30.08 "Hg10 mi
5:55 AM50 °FCool.No wind88%30.08 "Hg10 mi
5:35 AM52 °FCool.No wind82%30.08 "Hg10 mi
5:15 AM50 °FCool.No wind88%30.08 "Hg10 mi
4:55 AM52 °FCool.No wind82%30.08 "Hg10 mi
4:35 AM52 °FCool.No wind82%30.08 "Hg10 mi
4:15 AM54 °FCool.No wind88%30.08 "Hg10 mi
3:55 AM54 °FCool.No wind82%30.09 "Hg10 mi
3:35 AM54 °FCool.No wind82%30.09 "Hg10 mi
3:15 AM54 °FCool.No wind82%30.09 "Hg10 mi
2:55 AM54 °FCool.No wind82%30.10 "Hg10 mi
2:35 AM55 °FCool.No wind88%30.10 "Hg10 mi
2:15 AM55 °FCool.No wind82%30.11 "Hg10 mi
1:55 AM57 °FCool.No wind82%30.11 "Hg10 mi
1:35 AM57 °FCool.No wind88%30.12 "Hg10 mi
1:15 AM59 °FCool.No wind82%30.12 "Hg10 mi
12:55 AM59 °FCool.3 mph82%30.13 "Hg10 mi
12:35 AM59 °FCool.3 mph82%30.13 "Hg10 mi
12:15 AM59 °FCool.5 mph82%30.13 "Hg10 mi
11:55 PM
Sun, Sep 25
61 °FCool.3 mph77%30.14 "Hg10 mi
11:35 PM61 °FCool.3 mph77%30.14 "Hg10 mi
11:15 PM61 °FCool.No wind77%30.14 "Hg10 mi
10:55 PM63 °FMild.5 mph73%30.14 "Hg10 mi
10:35 PM63 °FMild.5 mph73%30.15 "Hg10 mi
10:15 PM63 °FMild.5 mph73%30.15 "Hg10 mi
9:55 PM63 °FMild.6 mph73%30.15 "Hg10 mi
9:35 PM63 °FMild.5 mph73%30.16 "Hg10 mi
9:15 PM64 °FMild.7 mph68%30.16 "Hg10 mi
8:55 PM64 °FMild.7 mph68%30.17 "Hg10 mi
8:35 PM64 °FMild.6 mph68%30.17 "Hg10 mi
8:15 PM66 °FMild.6 mph64%30.17 "Hg10 mi
Weather by CustomWeather, © 2016

See weather overviewHow to use our weather pages